Time,TemperatureF,DewpointF,PressureIn,WindDirection,WindDirectionDegrees,WindSpeedMPH,WindSpeedGustMPH,Humidity,HourlyPrecipIn,Conditions,Clouds,dailyrainin,SoftwareType,DateUTC
2013-07-31 00:02:00,71.1,69.3,30.03,ESE,121,3.0,4.0,94,0.00,,,0.00,Wunderground v.1.15,2013-07-31 05:02:00,
2013-07-31 00:08:00,71.1,69.3,30.02,South,169,2.0,4.0,94,0.00,,,0.00,Wunderground v.1.15,2013-07-31 05:08:00,
2013-07-31 00:13:00,71.1,69.3,30.02,SSE,153,2.0,3.0,94,0.00,,,0.00,Wunderground v.1.15,2013-07-31 05:13:00,
2013-07-31 00:19:00,71.1,69.6,30.03,SE,145,1.0,3.0,95,0.00,,,0.00,Wunderground v.1.15,2013-07-31 05:19:00,
2013-07-31 00:24:00,71.1,69.6,30.02,SSE,157,5.0,5.0,95,0.00,,,0.00,Wunderground v.1.15,2013-07-31 05:24:00,
2013-07-31 00:30:00,71.2,69.7,30.02,ESE,105,1.0,2.0,95,0.00,,,0.00,Wunderground v.1.15,2013-07-31 05:30:00,
2013-07-31 00:36:00,71.2,69.7,30.02,SE,141,0.0,2.0,95,0.00,,,0.00,Wunderground v.1.15,2013-07-31 05:36:00,
2013-07-31 00:41:00,71.3,70.1,30.02,South,169,0.0,1.0,96,0.00,,,0.00,Wunderground v.1.15,2013-07-31 05:41:00,
2013-07-31 00:46:00,71.2,70.0,30.02,SW,222,0.0,1.0,96,0.00,,,0.00,Wunderground v.1.15,2013-07-31 05:46:00,
2013-07-31 00:52:00,71.2,70.0,30.02,SSW,207,1.0,1.0,96,0.00,,,0.00,Wunderground v.1.15,2013-07-31 05:52:00,
2013-07-31 00:57:00,71.3,70.1,30.02,SW,231,0.0,1.0,96,0.00,,,0.00,Wunderground v.1.15,2013-07-31 05:57:00,
2013-07-31 01:02:00,71.2,70.0,30.02,SSE,159,0.0,1.0,96,0.00,,,0.00,Wunderground v.1.15,2013-07-31 06:02:00,
2013-07-31 01:08:00,71.2,70.0,30.02,SSW,211,2.0,3.0,96,0.00,,,0.00,Wunderground v.1.15,2013-07-31 06:08:00,
2013-07-31 01:14:00,71.2,70.0,30.02,SSE,167,1.0,2.0,96,0.00,,,0.00,Wunderground v.1.15,2013-07-31 06:14:00,
2013-07-31 01:20:00,71.2,70.0,30.02,SE,129,1.0,1.0,96,0.00,,,0.00,Wunderground v.1.15,2013-07-31 06:20:00,
2013-07-31 01:25:00,71.2,70.0,30.02,SSE,147,1.0,4.0,96,0.00,,,0.00,Wunderground v.1.15,2013-07-31 06:25:00,
2013-07-31 01:31:00,71.2,70.0,30.02,SSE,158,0.0,1.0,96,0.00,,,0.00,Wunderground v.1.15,2013-07-31 06:31:00,
2013-07-31 01:37:00,71.2,70.3,30.02,WSW,245,0.0,1.0,97,0.00,,,0.00,Wunderground v.1.15,2013-07-31 06:37:00,
2013-07-31 01:42:00,71.2,70.3,30.01,SSE,155,0.0,2.0,97,0.00,,,0.00,Wunderground v.1.15,2013-07-31 06:42:00,
2013-07-31 01:48:00,71.2,70.3,30.01,SE,139,3.0,3.0,97,0.00,,,0.00,Wunderground v.1.15,2013-07-31 06:48:00,
2013-07-31 01:54:00,71.2,70.3,30.01,SE,137,0.0,2.0,97,0.00,,,0.00,Wunderground v.1.15,2013-07-31 06:54:00,
2013-07-31 02:00:00,71.2,70.3,30.01,SE,145,0.0,1.0,97,0.00,,,0.00,Wunderground v.1.15,2013-07-31 07:00:00,
2013-07-31 02:05:00,71.2,70.3,30.01,NW,314,2.0,3.0,97,0.00,,,0.00,Wunderground v.1.15,2013-07-31 07:05:00,
2013-07-31 02:10:00,71.2,70.3,30.01,SSE,150,1.0,1.0,97,0.00,,,0.00,Wunderground v.1.15,2013-07-31 07:10:00,
2013-07-31 02:15:00,71.2,70.3,30.01,South,177,2.0,4.0,97,0.00,,,0.00,Wunderground v.1.15,2013-07-31 07:15:00,
2013-07-31 02:20:00,71.2,70.3,30.01,SW,231,0.0,1.0,97,0.00,,,0.00,Wunderground v.1.15,2013-07-31 07:20:00,
2013-07-31 02:25:00,71.2,70.3,30.01,SSE,153,2.0,4.0,97,0.00,,,0.00,Wunderground v.1.15,2013-07-31 07:25:00,
2013-07-31 02:30:00,71.3,70.1,30.01,SE,141,0.0,1.0,96,0.00,,,0.00,Wunderground v.1.15,2013-07-31 07:30:00,
2013-07-31 02:35:00,71.2,70.0,30.01,SW,217,0.0,1.0,96,0.00,,,0.00,Wunderground v.1.15,2013-07-31 07:35:00,
2013-07-31 02:40:00,71.2,70.3,30.01,SW,217,0.0,0.0,97,0.00,,,0.00,Wunderground v.1.15,2013-07-31 07:40:00,
2013-07-31 02:45:00,71.2,70.3,30.01,SSE,157,0.0,1.0,97,0.00,,,0.00,Wunderground v.1.15,2013-07-31 07:45:00,
2013-07-31 02:50:00,71.2,70.3,30.00,SE,139,1.0,1.0,97,0.00,,,0.00,Wunderground v.1.15,2013-07-31 07:50:00,
2013-07-31 02:55:00,71.2,70.3,30.00,SE,139,0.0,1.0,97,0.00,,,0.00,Wunderground v.1.15,2013-07-31 07:55:00,
2013-07-31 03:00:00,71.1,70.2,30.00,SE,139,0.0,0.0,97,0.00,,,0.00,Wunderground v.1.15,2013-07-31 08:00:00,
2013-07-31 03:05:00,71.1,70.2,30.00,SE,143,0.0,1.0,97,0.00,,,0.00,Wunderground v.1.15,2013-07-31 08:05:00,
2013-07-31 03:10:00,71.1,70.2,30.00,SE,143,0.0,0.0,97,0.00,,,0.00,Wunderground v.1.15,2013-07-31 08:10:00,
2013-07-31 03:15:00,71.0,70.1,30.00,SE,139,1.0,2.0,97,0.00,,,0.00,Wunderground v.1.15,2013-07-31 08:15:00,
2013-07-31 03:20:00,70.9,70.0,30.00,SE,139,0.0,0.0,97,0.00,,,0.00,Wunderground v.1.15,2013-07-31 08:20:00,
2013-07-31 03:25:00,70.9,70.0,30.00,SE,146,0.0,1.0,97,0.00,,,0.00,Wunderground v.1.15,2013-07-31 08:25:00,
2013-07-31 03:30:00,70.9,70.0,30.00,SSE,148,2.0,2.0,97,0.00,,,0.00,Wunderground v.1.15,2013-07-31 08:30:00,
2013-07-31 03:35:00,70.8,69.9,30.00,SE,141,1.0,2.0,97,0.00,,,0.00,Wunderground v.1.15,2013-07-31 08:35:00,
2013-07-31 03:40:00,70.8,69.9,30.00,SE,143,1.0,1.0,97,0.00,,,0.00,Wunderground v.1.15,2013-07-31 08:40:00,
2013-07-31 03:45:00,70.7,69.8,30.00,SE,141,0.0,2.0,97,0.00,,,0.00,Wunderground v.1.15,2013-07-31 08:45:00,
2013-07-31 03:50:00,70.7,69.8,30.00,SE,139,1.0,1.0,97,0.00,,,0.00,Wunderground v.1.15,2013-07-31 08:50:00,
2013-07-31 03:55:00,70.7,69.8,29.99,SSE,152,1.0,2.0,97,0.00,,,0.00,Wunderground v.1.15,2013-07-31 08:55:00,
2013-07-31 04:01:00,70.6,69.7,29.99,SE,139,0.0,1.0,97,0.00,,,0.00,Wunderground v.1.15,2013-07-31 09:01:00,
2013-07-31 04:05:00,70.6,69.7,29.99,ESE,120,0.0,1.0,97,0.00,,,0.00,Wunderground v.1.15,2013-07-31 09:05:00,
2013-07-31 04:10:00,70.5,69.6,29.99,SSE,150,0.0,0.0,97,0.00,,,0.00,Wunderground v.1.15,2013-07-31 09:10:00,
2013-07-31 04:15:00,70.5,69.6,29.99,SSE,150,0.0,0.0,97,0.00,,,0.00,Wunderground v.1.15,2013-07-31 09:15:00,
2013-07-31 04:20:00,70.4,69.5,29.99,SE,143,1.0,1.0,97,0.00,,,0.00,Wunderground v.1.15,2013-07-31 09:20:00,
2013-07-31 04:25:00,70.4,69.5,29.99,SE,145,0.0,1.0,97,0.00,,,0.00,Wunderground v.1.15,2013-07-31 09:25:00,
2013-07-31 04:30:00,70.4,69.5,29.99,SE,139,0.0,2.0,97,0.00,,,0.00,Wunderground v.1.15,2013-07-31 09:30:00,
2013-07-31 04:35:00,70.3,69.4,29.99,SE,139,0.0,2.0,97,0.00,,,0.00,Wunderground v.1.15,2013-07-31 09:35:00,
2013-07-31 04:41:00,70.3,69.4,29.99,SE,138,0.0,1.0,97,0.00,,,0.00,Wunderground v.1.15,2013-07-31 09:41:00,
2013-07-31 04:46:00,70.3,69.4,29.99,SE,139,0.0,1.0,97,0.00,,,0.00,Wunderground v.1.15,2013-07-31 09:46:00,
2013-07-31 04:51:00,70.2,69.3,29.99,SE,138,0.0,1.0,97,0.00,,,0.00,Wunderground v.1.15,2013-07-31 09:51:00,
2013-07-31 04:56:00,70.2,69.3,29.99,SE,136,0.0,1.0,97,0.00,,,0.00,Wunderground v.1.15,2013-07-31 09:56:00,
2013-07-31 05:01:00,70.2,69.3,29.99,SE,141,0.0,0.0,97,0.00,,,0.00,Wunderground v.1.15,2013-07-31 10:01:00,
2013-07-31 05:06:00,70.1,69.2,29.99,SE,135,0.0,1.0,97,0.00,,,0.00,Wunderground v.1.15,2013-07-31 10:06:00,
2013-07-31 05:11:00,70.1,69.2,29.99,SE,136,0.0,1.0,97,0.00,,,0.00,Wunderground v.1.15,2013-07-31 10:11:00,
2013-07-31 05:16:00,70.1,69.2,29.99,SE,136,0.0,1.0,97,0.00,,,0.00,Wunderground v.1.15,2013-07-31 10:16:00,
2013-07-31 05:21:00,70.0,69.1,29.99,SE,136,0.0,1.0,97,0.00,,,0.00,Wunderground v.1.15,2013-07-31 10:21:00,
2013-07-31 05:26:00,69.9,69.0,29.99,SE,141,1.0,3.0,97,0.00,,,0.00,Wunderground v.1.15,2013-07-31 10:26:00,
2013-07-31 05:31:00,69.9,69.0,29.99,SSE,148,0.0,1.0,97,0.00,,,0.00,Wunderground v.1.15,2013-07-31 10:31:00,
2013-07-31 05:36:00,69.9,69.0,29.99,SE,139,2.0,2.0,97,0.00,,,0.00,Wunderground v.1.15,2013-07-31 10:36:00,
2013-07-31 05:41:00,69.8,68.9,29.99,SE,138,0.0,0.0,97,0.00,,,0.00,Wunderground v.1.15,2013-07-31 10:41:00,
2013-07-31 05:46:00,69.7,68.8,29.99,SE,138,0.0,0.0,97,0.00,,,0.00,Wunderground v.1.15,2013-07-31 10:46:00,
2013-07-31 05:51:00,69.7,68.8,29.99,East,97,0.0,1.0,97,0.00,,,0.00,Wunderground v.1.15,2013-07-31 10:51:00,
2013-07-31 05:56:00,69.6,68.7,29.99,East,97,0.0,1.0,97,0.00,,,0.00,Wunderground v.1.15,2013-07-31 10:56:00,
2013-07-31 06:01:00,69.5,68.6,30.00,East,97,1.0,1.0,97,0.00,,,0.00,Wunderground v.1.15,2013-07-31 11:01:00,
2013-07-31 06:06:00,69.4,68.5,30.00,SE,145,0.0,1.0,97,0.00,,,0.00,Wunderground v.1.15,2013-07-31 11:06:00,
2013-07-31 06:11:00,69.3,68.4,30.00,SE,145,0.0,0.0,97,0.00,,,0.00,Wunderground v.1.15,2013-07-31 11:11:00,
2013-07-31 06:16:00,69.3,68.7,30.00,SE,142,0.0,1.0,98,0.00,,,0.00,Wunderground v.1.15,2013-07-31 11:16:00,
2013-07-31 06:21:00,69.4,68.8,30.00,SE,142,0.0,0.0,98,0.00,,,0.00,Wunderground v.1.15,2013-07-31 11:21:00,
2013-07-31 06:26:00,69.3,68.7,30.00,SE,143,0.0,1.0,98,0.00,,,0.00,Wunderground v.1.15,2013-07-31 11:26:00,
2013-07-31 06:31:00,69.5,68.9,30.00,SE,143,0.0,0.0,98,0.00,,,0.00,Wunderground v.1.15,2013-07-31 11:31:00,
2013-07-31 06:36:00,69.6,69.0,30.00,SE,139,0.0,1.0,98,0.00,,,0.00,Wunderground v.1.15,2013-07-31 11:36:00,
2013-07-31 06:41:00,69.8,69.2,30.00,SE,132,0.0,0.0,98,0.00,,,0.00,Wunderground v.1.15,2013-07-31 11:41:00,
2013-07-31 06:46:00,69.9,69.3,30.00,SE,132,0.0,1.0,98,0.00,,,0.00,Wunderground v.1.15,2013-07-31 11:46:00,
2013-07-31 06:51:00,70.0,69.4,30.00,SE,132,0.0,1.0,98,0.00,,,0.00,Wunderground v.1.15,2013-07-31 11:51:00,
2013-07-31 06:56:00,70.1,69.5,30.00,SE,138,0.0,1.0,98,0.00,,,0.00,Wunderground v.1.15,2013-07-31 11:56:00,
2013-07-31 07:01:00,70.3,69.7,30.00,SE,139,0.0,0.0,98,0.00,,,0.00,Wunderground v.1.15,2013-07-31 12:01:00,
2013-07-31 07:07:00,70.6,70.0,30.00,SE,135,0.0,1.0,98,0.00,,,0.00,Wunderground v.1.15,2013-07-31 12:07:00,
2013-07-31 07:12:00,70.6,69.7,30.00,SSE,163,0.0,0.0,97,0.00,,,0.00,Wunderground v.1.15,2013-07-31 12:12:00,
2013-07-31 07:17:00,70.8,70.2,30.00,SE,141,0.0,1.0,98,0.00,,,0.00,Wunderground v.1.15,2013-07-31 12:17:00,
2013-07-31 07:22:00,70.9,70.0,30.00,SSE,157,0.0,1.0,97,0.00,,,0.00,Wunderground v.1.15,2013-07-31 12:22:00,
2013-07-31 07:27:00,71.1,70.2,30.00,SE,137,0.0,2.0,97,0.00,,,0.00,Wunderground v.1.15,2013-07-31 12:27:00,
2013-07-31 07:32:00,71.6,70.7,30.00,ESE,117,1.0,1.0,97,0.00,,,0.00,Wunderground v.1.15,2013-07-31 12:32:00,
2013-07-31 07:37:00,71.7,70.8,30.00,SW,229,2.0,2.0,97,0.00,,,0.00,Wunderground v.1.15,2013-07-31 12:37:00,
2013-07-31 07:42:00,71.8,70.6,30.00,SW,214,0.0,2.0,96,0.00,,,0.00,Wunderground v.1.15,2013-07-31 12:42:00,
2013-07-31 07:47:00,72.1,70.9,30.00,SW,222,0.0,2.0,96,0.00,,,0.00,Wunderground v.1.15,2013-07-31 12:47:00,
2013-07-31 07:52:00,72.4,71.2,30.00,SW,222,0.0,0.0,96,0.00,,,0.00,Wunderground v.1.15,2013-07-31 12:52:00,
2013-07-31 07:57:00,72.8,71.6,30.00,SW,221,0.0,0.0,96,0.00,,,0.00,Wunderground v.1.15,2013-07-31 12:57:00,
2013-07-31 08:02:00,73.3,71.8,30.01,SW,222,0.0,1.0,95,0.00,,,0.00,Wunderground v.1.15,2013-07-31 13:02:00,
2013-07-31 08:07:00,73.5,71.7,30.01,SW,232,1.0,1.0,94,0.00,,,0.00,Wunderground v.1.15,2013-07-31 13:07:00,
2013-07-31 08:12:00,73.6,72.1,30.01,SW,232,0.0,0.0,95,0.00,,,0.00,Wunderground v.1.15,2013-07-31 13:12:00,
2013-07-31 08:17:00,73.8,72.0,30.01,SW,233,0.0,1.0,94,0.00,,,0.00,Wunderground v.1.15,2013-07-31 13:17:00,
2013-07-31 08:22:00,74.1,72.3,30.01,SW,235,0.0,0.0,94,0.00,,,0.00,Wunderground v.1.15,2013-07-31 13:22:00,
2013-07-31 08:27:00,74.4,72.2,30.01,WSW,252,1.0,2.0,93,0.00,,,0.00,Wunderground v.1.15,2013-07-31 13:27:00,
2013-07-31 08:32:00,74.5,72.3,30.01,West,268,0.0,1.0,93,0.00,,,0.00,Wunderground v.1.15,2013-07-31 13:32:00,
2013-07-31 08:37:00,74.6,72.1,30.01,SW,216,0.0,2.0,92,0.00,,,0.00,Wunderground v.1.15,2013-07-31 13:37:00,
2013-07-31 08:42:00,74.6,72.1,30.01,NW,308,1.0,2.0,92,0.00,,,0.00,Wunderground v.1.15,2013-07-31 13:42:00,
2013-07-31 08:47:00,74.5,72.3,30.01,NW,315,0.0,2.0,93,0.00,,,0.00,Wunderground v.1.15,2013-07-31 13:47:00,
2013-07-31 08:52:00,74.6,72.4,30.01,NW,318,2.0,2.0,93,0.00,,,0.00,Wunderground v.1.15,2013-07-31 13:52:00,
2013-07-31 08:57:00,74.5,72.3,30.01,NW,309,0.0,3.0,93,0.00,,,0.00,Wunderground v.1.15,2013-07-31 13:57:00,
2013-07-31 09:03:00,74.5,72.3,30.01,NW,323,1.0,2.0,93,0.00,,,0.00,Wunderground v.1.15,2013-07-31 14:03:00,
2013-07-31 09:08:00,74.5,72.3,30.00,NW,306,2.0,3.0,93,0.00,,,0.00,Wunderground v.1.15,2013-07-31 14:08:00,
2013-07-31 09:13:00,74.5,72.3,30.00,NW,308,1.0,2.0,93,0.00,,,0.00,Wunderground v.1.15,2013-07-31 14:13:00,
2013-07-31 09:18:00,74.5,72.3,30.00,NW,309,0.0,2.0,93,0.00,,,0.00,Wunderground v.1.15,2013-07-31 14:18:00,
2013-07-31 09:23:00,74.7,72.5,30.00,NW,309,0.0,1.0,93,0.00,,,0.00,Wunderground v.1.15,2013-07-31 14:23:00,
2013-07-31 09:28:00,75.1,72.9,30.00,NW,309,2.0,3.0,93,0.00,,,0.00,Wunderground v.1.15,2013-07-31 14:28:00,
2013-07-31 09:33:00,75.2,73.0,30.00,West,281,1.0,1.0,93,0.00,,,0.00,Wunderground v.1.15,2013-07-31 14:33:00,
2013-07-31 09:38:00,75.4,73.2,30.00,North,6,0.0,2.0,93,0.00,,,0.00,Wunderground v.1.15,2013-07-31 14:38:00,
2013-07-31 09:43:00,75.5,73.0,30.00,WNW,293,0.0,1.0,92,0.00,,,0.00,Wunderground v.1.15,2013-07-31 14:43:00,
2013-07-31 09:48:00,75.7,73.2,30.00,NW,304,2.0,3.0,92,0.00,,,0.00,Wunderground v.1.15,2013-07-31 14:48:00,
2013-07-31 09:53:00,75.7,73.2,30.00,NW,315,0.0,2.0,92,0.00,,,0.00,Wunderground v.1.15,2013-07-31 14:53:00,
2013-07-31 09:58:00,75.8,73.0,30.00,NW,307,0.0,3.0,91,0.00,,,0.00,Wunderground v.1.15,2013-07-31 14:58:00,
2013-07-31 10:03:00,76.2,73.4,30.00,WNW,302,0.0,1.0,91,0.00,,,0.00,Wunderground v.1.15,2013-07-31 15:03:00,
2013-07-31 10:08:00,76.7,73.5,29.99,WNW,283,0.0,1.0,90,0.00,,,0.00,Wunderground v.1.15,2013-07-31 15:08:00,
2013-07-31 10:13:00,77.1,73.6,29.99,NW,316,2.0,2.0,89,0.00,,,0.00,Wunderground v.1.15,2013-07-31 15:13:00,
2013-07-31 10:18:00,77.2,74.0,29.99,NW,304,0.0,2.0,90,0.00,,,0.00,Wunderground v.1.15,2013-07-31 15:18:00,
2013-07-31 10:23:00,77.6,73.8,29.99,NW,311,0.0,2.0,88,0.00,,,0.00,Wunderground v.1.15,2013-07-31 15:23:00,
2013-07-31 10:28:00,78.1,73.9,30.00,WNW,302,1.0,3.0,87,0.00,,,0.00,Wunderground v.1.15,2013-07-31 15:28:00,
2013-07-31 10:33:00,78.3,74.1,30.00,WNW,302,0.0,1.0,87,0.00,,,0.00,Wunderground v.1.15,2013-07-31 15:33:00,
2013-07-31 10:38:00,78.3,74.1,30.00,West,273,1.0,4.0,87,0.00,,,0.00,Wunderground v.1.15,2013-07-31 15:38:00,
2013-07-31 10:43:00,78.3,74.1,30.00,NNW,347,0.0,2.0,87,0.00,,,0.00,Wunderground v.1.15,2013-07-31 15:43:00,
2013-07-31 10:48:00,78.6,74.4,30.00,NW,314,1.0,2.0,87,0.00,,,0.00,Wunderground v.1.15,2013-07-31 15:48:00,
2013-07-31 10:53:00,78.6,74.1,30.00,NW,315,2.0,3.0,86,0.00,,,0.00,Wunderground v.1.15,2013-07-31 15:53:00,
2013-07-31 10:58:00,78.3,74.1,30.00,WNW,303,1.0,3.0,87,0.00,,,0.00,Wunderground v.1.15,2013-07-31 15:58:00,
2013-07-31 11:03:00,78.5,74.0,30.00,WNW,302,0.0,1.0,86,0.00,,,0.00,Wunderground v.1.15,2013-07-31 16:03:00,
2013-07-31 11:08:00,79.2,74.6,30.00,WNW,302,0.0,1.0,86,0.00,,,0.00,Wunderground v.1.15,2013-07-31 16:08:00,
2013-07-31 11:13:00,79.7,74.8,29.99,NW,305,1.0,2.0,85,0.00,,,0.00,Wunderground v.1.15,2013-07-31 16:13:00,
2013-07-31 11:18:00,79.6,74.0,30.00,NW,326,0.0,2.0,83,0.00,,,0.00,Wunderground v.1.15,2013-07-31 16:18:00,
2013-07-31 11:23:00,79.7,74.4,30.00,North,350,2.0,3.0,84,0.00,,,0.00,Wunderground v.1.15,2013-07-31 16:23:00,
2013-07-31 11:28:00,79.6,74.3,30.00,ENE,61,2.0,3.0,84,0.00,,,0.00,Wunderground v.1.15,2013-07-31 16:28:00,
2013-07-31 11:33:00,79.6,74.7,30.00,North,6,1.0,2.0,85,0.00,,,0.00,Wunderground v.1.15,2013-07-31 16:33:00,
2013-07-31 11:38:00,79.6,74.7,30.00,NE,40,0.0,2.0,85,0.00,,,0.00,Wunderground v.1.15,2013-07-31 16:38:00,
2013-07-31 11:43:00,79.9,74.6,30.00,NNW,328,0.0,1.0,84,0.00,,,0.00,Wunderground v.1.15,2013-07-31 16:43:00,
2013-07-31 11:48:00,80.2,74.9,30.00,North,350,0.0,1.0,84,0.00,,,0.00,Wunderground v.1.15,2013-07-31 16:48:00,
2013-07-31 11:54:00,80.5,74.5,30.00,SE,128,1.0,2.0,82,0.00,,,0.00,Wunderground v.1.15,2013-07-31 16:54:00,
2013-07-31 11:59:00,80.2,74.2,30.00,SE,136,1.0,2.0,82,0.00,,,0.00,Wunderground v.1.15,2013-07-31 16:59:00,
2013-07-31 12:04:00,80.3,74.7,30.00,SW,225,0.0,2.0,83,0.00,,,0.00,Wunderground v.1.15,2013-07-31 17:04:00,
2013-07-31 12:09:00,80.6,74.6,30.00,NNE,24,1.0,2.0,82,0.00,,,0.00,Wunderground v.1.15,2013-07-31 17:09:00,
2013-07-31 12:14:00,80.2,74.2,30.00,WNW,301,1.0,2.0,82,0.00,,,0.00,Wunderground v.1.15,2013-07-31 17:14:00,
2013-07-31 12:19:00,79.8,74.2,30.00,WNW,302,0.0,2.0,83,0.00,,,0.00,Wunderground v.1.15,2013-07-31 17:19:00,
2013-07-31 12:24:00,79.7,74.1,30.00,WNW,300,0.0,4.0,83,0.00,,,0.00,Wunderground v.1.15,2013-07-31 17:24:00,
2013-07-31 12:29:00,79.5,74.2,30.00,NNW,329,1.0,4.0,84,0.00,,,0.00,Wunderground v.1.15,2013-07-31 17:29:00,
2013-07-31 12:34:00,79.4,74.1,30.00,WNW,300,1.0,2.0,84,0.00,,,0.00,Wunderground v.1.15,2013-07-31 17:34:00,
2013-07-31 12:39:00,79.5,74.6,30.00,NE,49,1.0,2.0,85,0.00,,,0.00,Wunderground v.1.15,2013-07-31 17:39:00,
2013-07-31 12:44:00,79.8,74.5,29.99,North,360,0.0,1.0,84,0.00,,,0.00,Wunderground v.1.15,2013-07-31 17:44:00,
2013-07-31 12:49:00,80.0,74.4,29.99,ENE,68,1.0,3.0,83,0.00,,,0.00,Wunderground v.1.15,2013-07-31 17:49:00,
2013-07-31 12:54:00,80.3,75.0,29.99,North,356,1.0,3.0,84,0.00,,,0.00,Wunderground v.1.15,2013-07-31 17:54:00,
2013-07-31 12:59:00,80.7,75.1,29.99,NNW,344,2.0,3.0,83,0.00,,,0.00,Wunderground v.1.15,2013-07-31 17:59:00,
2013-07-31 13:04:00,81.4,75.0,29.99,WNW,292,0.0,1.0,81,0.00,,,0.00,Wunderground v.1.15,2013-07-31 18:04:00,
2013-07-31 13:09:00,82.8,76.0,29.99,NE,44,3.0,4.0,80,0.00,,,0.00,Wunderground v.1.15,2013-07-31 18:09:00,
2013-07-31 13:14:00,82.7,75.1,29.98,NW,318,1.0,4.0,78,0.00,,,0.00,Wunderground v.1.15,2013-07-31 18:14:00,
2013-07-31 13:19:00,82.9,75.3,29.98,NNE,25,1.0,4.0,78,0.00,,,0.00,Wunderground v.1.15,2013-07-31 18:19:00,
2013-07-31 13:24:00,83.2,74.8,29.98,NNE,16,3.0,3.0,76,0.00,,,0.00,Wunderground v.1.15,2013-07-31 18:24:00,
2013-07-31 13:29:00,83.2,75.2,29.98,NE,44,5.0,5.0,77,0.00,,,0.00,Wunderground v.1.15,2013-07-31 18:29:00,
2013-07-31 13:34:00,82.8,74.8,29.97,NW,325,3.0,5.0,77,0.00,,,0.00,Wunderground v.1.15,2013-07-31 18:34:00,
2013-07-31 13:39:00,83.2,75.6,29.97,ENE,60,2.0,6.0,78,0.00,,,0.00,Wunderground v.1.15,2013-07-31 18:39:00,
2013-07-31 13:44:00,83.2,76.0,29.97,NNE,28,3.0,6.0,79,0.00,,,0.00,Wunderground v.1.15,2013-07-31 18:44:00,
2013-07-31 13:49:00,82.9,75.3,29.97,NNE,18,1.0,7.0,78,0.00,,,0.00,Wunderground v.1.15,2013-07-31 18:49:00,
2013-07-31 13:54:00,82.6,75.4,29.97,NW,325,4.0,7.0,79,0.00,,,0.00,Wunderground v.1.15,2013-07-31 18:54:00,
2013-07-31 13:59:00,82.5,74.9,29.97,NNW,330,2.0,7.0,78,0.00,,,0.00,Wunderground v.1.15,2013-07-31 18:59:00,
2013-07-31 14:04:00,82.8,74.8,29.97,WNW,301,4.0,6.0,77,0.00,,,0.00,Wunderground v.1.15,2013-07-31 19:04:00,
2013-07-31 14:09:00,83.0,75.4,29.97,NNW,338,5.0,7.0,78,0.00,,,0.00,Wunderground v.1.15,2013-07-31 19:09:00,
2013-07-31 14:14:00,83.6,74.0,29.96,North,3,4.0,9.0,73,0.00,,,0.00,Wunderground v.1.15,2013-07-31 19:14:00,
2013-07-31 14:19:00,83.7,74.5,29.96,NNW,329,1.0,9.0,74,0.00,,,0.00,Wunderground v.1.15,2013-07-31 19:19:00,
2013-07-31 14:24:00,84.0,75.2,29.96,NE,40,3.0,4.0,75,0.00,,,0.00,Wunderground v.1.15,2013-07-31 19:24:00,
2013-07-31 14:29:00,84.6,74.6,29.96,NE,34,4.0,7.0,72,0.00,,,0.00,Wunderground v.1.15,2013-07-31 19:29:00,
2013-07-31 14:34:00,84.5,74.9,29.95,NE,50,4.0,5.0,73,0.00,,,0.00,Wunderground v.1.15,2013-07-31 19:34:00,
2013-07-31 14:39:00,84.3,75.1,29.95,NNE,32,1.0,6.0,74,0.00,,,0.00,Wunderground v.1.15,2013-07-31 19:39:00,
2013-07-31 14:44:00,84.8,74.3,29.95,WNW,297,8.0,8.0,71,0.00,,,0.00,Wunderground v.1.15,2013-07-31 19:44:00,
2013-07-31 14:49:00,85.2,74.7,29.95,NW,314,1.0,8.0,71,0.00,,,0.00,Wunderground v.1.15,2013-07-31 19:49:00,
2013-07-31 14:54:00,85.4,74.1,29.95,NE,51,0.0,4.0,69,0.00,,,0.00,Wunderground v.1.15,2013-07-31 19:54:00,
2013-07-31 14:59:00,85.5,75.0,29.95,WNW,303,3.0,6.0,71,0.00,,,0.00,Wunderground v.1.15,2013-07-31 19:59:00,
2013-07-31 15:04:00,85.6,75.5,29.95,ENE,63,3.0,6.0,72,0.00,,,0.00,Wunderground v.1.15,2013-07-31 20:04:00,
2013-07-31 15:09:00,85.9,75.4,29.94,NNE,12,3.0,6.0,71,0.00,,,0.00,Wunderground v.1.15,2013-07-31 20:09:00,
2013-07-31 15:14:00,85.5,76.3,29.95,NE,47,6.0,10.0,74,0.00,,,0.00,Wunderground v.1.15,2013-07-31 20:14:00,
2013-07-31 15:19:00,84.4,76.0,29.95,ENE,72,5.0,10.0,76,0.00,,,0.00,Wunderground v.1.15,2013-07-31 20:19:00,
2013-07-31 15:24:00,83.8,75.8,29.95,ENE,64,3.0,6.0,77,0.00,,,0.00,Wunderground v.1.15,2013-07-31 20:24:00,
2013-07-31 15:29:00,84.2,76.2,29.95,ENE,65,4.0,7.0,77,0.00,,,0.00,Wunderground v.1.15,2013-07-31 20:29:00,
2013-07-31 15:34:00,84.6,76.2,29.95,NE,40,6.0,9.0,76,0.00,,,0.00,Wunderground v.1.15,2013-07-31 20:34:00,
2013-07-31 15:39:00,84.4,76.0,29.94,ENE,72,4.0,10.0,76,0.00,,,0.00,Wunderground v.1.15,2013-07-31 20:39:00,
2013-07-31 15:44:00,84.2,75.8,29.94,East,92,1.0,6.0,76,0.00,,,0.00,Wunderground v.1.15,2013-07-31 20:44:00,
2013-07-31 15:49:00,84.4,76.4,29.94,NNE,26,4.0,6.0,77,0.00,,,0.00,Wunderground v.1.15,2013-07-31 20:49:00,
2013-07-31 15:54:00,84.7,75.9,29.94,North,4,2.0,6.0,75,0.00,,,0.00,Wunderground v.1.15,2013-07-31 20:54:00,
2013-07-31 15:59:00,84.8,75.2,29.94,NNE,32,2.0,8.0,73,0.00,,,0.00,Wunderground v.1.15,2013-07-31 20:59:00,
2013-07-31 16:04:00,84.5,75.7,29.94,NE,43,3.0,6.0,75,0.00,,,0.00,Wunderground v.1.15,2013-07-31 21:04:00,
2013-07-31 16:09:00,84.2,75.4,29.94,NE,44,0.0,6.0,75,0.00,,,0.00,Wunderground v.1.15,2013-07-31 21:09:00,
2013-07-31 16:14:00,84.5,75.3,29.94,NNE,22,2.0,7.0,74,0.00,,,0.00,Wunderground v.1.15,2013-07-31 21:14:00,
2013-07-31 16:19:00,84.5,75.3,29.94,NE,51,2.0,7.0,74,0.00,,,0.00,Wunderground v.1.15,2013-07-31 21:19:00,
2013-07-31 16:24:00,85.2,76.0,29.94,NE,51,4.0,4.0,74,0.00,,,0.00,Wunderground v.1.15,2013-07-31 21:24:00,
2013-07-31 16:29:00,84.5,74.9,29.94,NE,56,2.0,9.0,73,0.00,,,0.00,Wunderground v.1.15,2013-07-31 21:29:00,
2013-07-31 16:34:00,84.0,75.2,29.94,NE,44,3.0,9.0,75,0.00,,,0.00,Wunderground v.1.15,2013-07-31 21:34:00,
2013-07-31 16:39:00,83.8,74.6,29.93,NE,48,4.0,9.0,74,0.00,,,0.00,Wunderground v.1.15,2013-07-31 21:39:00,
2013-07-31 16:44:00,84.0,75.2,29.93,NNW,340,1.0,8.0,75,0.00,,,0.00,Wunderground v.1.15,2013-07-31 21:44:00,
2013-07-31 16:49:00,83.7,74.5,29.93,NE,40,2.0,13.0,74,0.00,,,0.00,Wunderground v.1.15,2013-07-31 21:49:00,
2013-07-31 16:55:00,83.2,74.4,29.93,NNW,340,2.0,10.0,75,0.00,,,0.00,Wunderground v.1.15,2013-07-31 21:55:00,
2013-07-31 17:00:00,83.2,74.8,29.93,NNE,32,1.0,3.0,76,0.00,,,0.00,Wunderground v.1.15,2013-07-31 22:00:00,
2013-07-31 17:05:00,83.3,74.9,29.93,NNW,333,1.0,6.0,76,0.00,,,0.00,Wunderground v.1.15,2013-07-31 22:05:00,
2013-07-31 17:10:00,83.0,74.3,29.93,NE,48,6.0,6.0,75,0.00,,,0.00,Wunderground v.1.15,2013-07-31 22:10:00,
2013-07-31 17:15:00,82.8,73.7,29.93,NE,49,2.0,8.0,74,0.00,,,0.00,Wunderground v.1.15,2013-07-31 22:15:00,
2013-07-31 17:20:00,83.5,74.3,29.93,NNE,27,1.0,3.0,74,0.00,,,0.00,Wunderground v.1.15,2013-07-31 22:20:00,
2013-07-31 17:25:00,84.1,74.5,29.93,WNW,293,1.0,5.0,73,0.00,,,0.00,Wunderground v.1.15,2013-07-31 22:25:00,
2013-07-31 17:30:00,84.4,74.0,29.93,NE,50,3.0,3.0,71,0.00,,,0.00,Wunderground v.1.15,2013-07-31 22:30:00,
2013-07-31 17:35:00,84.7,74.3,29.93,East,82,0.0,5.0,71,0.00,,,0.00,Wunderground v.1.15,2013-07-31 22:35:00,
2013-07-31 17:40:00,85.0,74.5,29.93,ENE,58,3.0,4.0,71,0.00,,,0.00,Wunderground v.1.15,2013-07-31 22:40:00,
2013-07-31 17:45:00,84.4,74.0,29.93,NE,42,5.0,6.0,71,0.00,,,0.00,Wunderground v.1.15,2013-07-31 22:45:00,
2013-07-31 17:50:00,84.1,73.3,29.93,NE,37,4.0,4.0,70,0.00,,,0.00,Wunderground v.1.15,2013-07-31 22:50:00,
2013-07-31 17:55:00,84.5,74.1,29.93,NNE,13,1.0,4.0,71,0.00,,,0.00,Wunderground v.1.15,2013-07-31 22:55:00,
2013-07-31 18:00:00,84.7,73.0,29.94,ENE,63,1.0,2.0,68,0.00,,,0.00,Wunderground v.1.15,2013-07-31 23:00:00,
2013-07-31 18:05:00,84.7,73.0,29.94,NE,44,1.0,5.0,68,0.00,,,0.00,Wunderground v.1.15,2013-07-31 23:05:00,
2013-07-31 18:10:00,84.5,73.2,29.93,NE,51,0.0,2.0,69,0.00,,,0.00,Wunderground v.1.15,2013-07-31 23:10:00,
2013-07-31 18:15:00,84.7,73.0,29.94,North,358,1.0,6.0,68,0.00,,,0.00,Wunderground v.1.15,2013-07-31 23:15:00,
2013-07-31 18:20:00,84.2,72.9,29.94,NE,42,1.0,3.0,69,0.00,,,0.00,Wunderground v.1.15,2013-07-31 23:20:00,
2013-07-31 18:25:00,83.8,73.0,29.94,ENE,77,0.0,4.0,70,0.00,,,0.00,Wunderground v.1.15,2013-07-31 23:25:00,
2013-07-31 18:30:00,83.3,72.9,29.94,NE,37,3.0,3.0,71,0.00,,,0.00,Wunderground v.1.15,2013-07-31 23:30:00,
2013-07-31 18:35:00,82.8,72.8,29.94,East,79,1.0,4.0,72,0.00,,,0.00,Wunderground v.1.15,2013-07-31 23:35:00,
2013-07-31 18:40:00,82.8,73.3,29.94,NE,56,2.0,2.0,73,0.00,,,0.00,Wunderground v.1.15,2013-07-31 23:40:00,
2013-07-31 18:45:00,82.6,73.1,29.94,ENE,70,0.0,4.0,73,0.00,,,0.00,Wunderground v.1.15,2013-07-31 23:45:00,
2013-07-31 18:50:00,82.8,72.8,29.94,NNE,19,2.0,5.0,72,0.00,,,0.00,Wunderground v.1.15,2013-07-31 23:50:00,
2013-07-31 18:55:00,82.7,72.3,29.94,NE,38,1.0,5.0,71,0.00,,,0.00,Wunderground v.1.15,2013-07-31 23:55:00,
2013-07-31 19:00:00,82.7,72.7,29.94,ENE,62,2.0,2.0,72,0.00,,,0.00,Wunderground v.1.15,2013-08-01 00:00:00,
2013-07-31 19:05:00,82.9,72.9,29.94,NE,55,1.0,2.0,72,0.00,,,0.00,Wunderground v.1.15,2013-08-01 00:05:00,
2013-07-31 19:10:00,82.8,72.8,29.94,ENE,72,1.0,2.0,72,0.00,,,0.00,Wunderground v.1.15,2013-08-01 00:10:00,
2013-07-31 19:15:00,82.8,72.4,29.94,NE,44,0.0,2.0,71,0.00,,,0.00,Wunderground v.1.15,2013-08-01 00:15:00,
2013-07-31 19:20:00,82.7,72.7,29.94,NE,50,2.0,2.0,72,0.00,,,0.00,Wunderground v.1.15,2013-08-01 00:20:00,
2013-07-31 19:25:00,82.2,72.7,29.94,NE,46,0.0,2.0,73,0.00,,,0.00,Wunderground v.1.15,2013-08-01 00:25:00,
2013-07-31 19:30:00,81.9,72.8,29.94,NE,46,0.0,1.0,74,0.00,,,0.00,Wunderground v.1.15,2013-08-01 00:30:00,
2013-07-31 19:35:00,81.6,72.5,29.94,NE,44,0.0,1.0,74,0.00,,,0.00,Wunderground v.1.15,2013-08-01 00:35:00,
2013-07-31 19:40:00,81.7,73.4,29.95,NE,44,0.0,0.0,76,0.00,,,0.00,Wunderground v.1.15,2013-08-01 00:40:00,
2013-07-31 19:45:00,81.3,73.0,29.95,NE,44,0.0,0.0,76,0.00,,,0.00,Wunderground v.1.15,2013-08-01 00:45:00,
2013-07-31 19:50:00,80.8,72.9,29.95,NE,46,0.0,0.0,77,0.00,,,0.00,Wunderground v.1.15,2013-08-01 00:50:00,
2013-07-31 19:55:00,80.1,73.0,29.95,NE,46,0.0,0.0,79,0.00,,,0.00,Wunderground v.1.15,2013-08-01 00:55:00,
2013-07-31 20:00:00,79.5,73.2,29.95,NE,46,0.0,0.0,81,0.00,,,0.00,Wunderground v.1.15,2013-08-01 01:00:00,
2013-07-31 20:05:00,78.6,72.6,29.95,NE,46,0.0,0.0,82,0.00,,,0.00,Wunderground v.1.15,2013-08-01 01:05:00,
2013-07-31 20:10:00,77.8,72.2,29.95,ENE,63,0.0,0.0,83,0.00,,,0.00,Wunderground v.1.15,2013-08-01 01:10:00,
2013-07-31 20:15:00,77.4,72.2,29.95,SE,131,0.0,1.0,84,0.00,,,0.00,Wunderground v.1.15,2013-08-01 01:15:00,
2013-07-31 20:20:00,77.0,72.1,29.95,SE,131,0.0,0.0,85,0.00,,,0.00,Wunderground v.1.15,2013-08-01 01:20:00,
2013-07-31 20:25:00,76.6,72.1,29.96,SE,131,0.0,0.0,86,0.00,,,0.00,Wunderground v.1.15,2013-08-01 01:25:00,
2013-07-31 20:30:00,76.3,71.8,29.96,SE,131,0.0,0.0,86,0.00,,,0.00,Wunderground v.1.15,2013-08-01 01:30:00,
2013-07-31 20:35:00,76.1,71.9,29.96,SE,131,0.0,0.0,87,0.00,,,0.00,Wunderground v.1.15,2013-08-01 01:35:00,
2013-07-31 20:40:00,75.8,72.0,29.96,SE,131,0.0,0.0,88,0.00,,,0.00,Wunderground v.1.15,2013-08-01 01:40:00,
2013-07-31 20:45:00,75.5,71.7,29.96,SE,131,0.0,0.0,88,0.00,,,0.00,Wunderground v.1.15,2013-08-01 01:45:00,
2013-07-31 20:50:00,75.3,71.8,29.96,SE,131,0.0,0.0,89,0.00,,,0.00,Wunderground v.1.15,2013-08-01 01:50:00,
2013-07-31 20:55:00,75.0,71.9,29.96,SE,131,0.0,0.0,90,0.00,,,0.00,Wunderground v.1.15,2013-08-01 01:55:00,
2013-07-31 21:01:00,74.8,71.7,29.96,SE,131,0.0,0.0,90,0.00,,,0.00,Wunderground v.1.15,2013-08-01 02:01:00,
2013-07-31 21:06:00,74.7,71.9,29.96,SE,131,0.0,0.0,91,0.00,,,0.00,Wunderground v.1.15,2013-08-01 02:06:00,
2013-07-31 21:11:00,74.6,71.8,29.96,SE,131,0.0,0.0,91,0.00,,,0.00,Wunderground v.1.15,2013-08-01 02:11:00,
2013-07-31 21:16:00,74.4,71.9,29.97,SE,131,0.0,0.0,92,0.00,,,0.00,Wunderground v.1.15,2013-08-01 02:16:00,
2013-07-31 21:21:00,74.2,71.7,29.97,SE,131,0.0,0.0,92,0.00,,,0.00,Wunderground v.1.15,2013-08-01 02:21:00,
2013-07-31 21:26:00,74.0,71.5,29.97,SE,131,0.0,0.0,92,0.00,,,0.00,Wunderground v.1.15,2013-08-01 02:26:00,
2013-07-31 21:31:00,73.9,71.7,29.97,SE,131,0.0,0.0,93,0.00,,,0.00,Wunderground v.1.15,2013-08-01 02:31:00,
2013-07-31 21:36:00,73.7,71.5,29.96,SE,131,0.0,0.0,93,0.00,,,0.00,Wunderground v.1.15,2013-08-01 02:36:00,
2013-07-31 21:41:00,73.5,71.4,29.96,SE,131,0.0,0.0,93,0.00,,,0.00,Wunderground v.1.15,2013-08-01 02:41:00,
2013-07-31 21:47:00,73.4,71.3,29.97,SE,131,0.0,0.0,93,0.00,,,0.00,Wunderground v.1.15,2013-08-01 02:47:00,
2013-07-31 21:52:00,73.2,71.1,29.97,SE,131,0.0,0.0,93,0.00,,,0.00,Wunderground v.1.15,2013-08-01 02:52:00,
2013-07-31 21:57:00,73.1,71.0,29.97,SE,131,0.0,0.0,93,0.00,,,0.00,Wunderground v.1.15,2013-08-01 02:57:00,
2013-07-31 22:02:00,72.9,71.1,29.97,SE,131,0.0,0.0,94,0.00,,,0.00,Wunderground v.1.15,2013-08-01 03:02:00,
2013-07-31 22:07:00,72.8,71.0,29.97,SE,131,0.0,0.0,94,0.00,,,0.00,Wunderground v.1.15,2013-08-01 03:07:00,
2013-07-31 22:12:00,72.7,71.2,29.97,SE,131,0.0,0.0,95,0.00,,,0.00,Wunderground v.1.15,2013-08-01 03:12:00,
2013-07-31 22:17:00,72.7,71.2,29.96,SE,131,0.0,0.0,95,0.00,,,0.00,Wunderground v.1.15,2013-08-01 03:17:00,
2013-07-31 22:22:00,72.6,71.1,29.96,SE,131,0.0,0.0,95,0.00,,,0.00,Wunderground v.1.15,2013-08-01 03:22:00,
2013-07-31 22:27:00,72.5,71.0,29.96,SE,131,0.0,0.0,95,0.00,,,0.00,Wunderground v.1.15,2013-08-01 03:27:00,
2013-07-31 22:32:00,72.5,71.0,29.96,SE,131,0.0,0.0,95,0.00,,,0.00,Wunderground v.1.15,2013-08-01 03:32:00,
2013-07-31 22:37:00,72.4,70.9,29.96,SE,131,0.0,0.0,95,0.00,,,0.00,Wunderground v.1.15,2013-08-01 03:37:00,
2013-07-31 22:42:00,72.3,70.8,29.96,SE,131,0.0,0.0,95,0.00,,,0.00,Wunderground v.1.15,2013-08-01 03:42:00,
2013-07-31 22:47:00,72.2,70.7,29.96,SE,131,0.0,0.0,95,0.00,,,0.00,Wunderground v.1.15,2013-08-01 03:47:00,
2013-07-31 22:52:00,72.0,70.5,29.96,SE,131,0.0,0.0,95,0.00,,,0.00,Wunderground v.1.15,2013-08-01 03:52:00,
2013-07-31 22:57:00,72.0,70.8,29.96,SE,131,0.0,0.0,96,0.00,,,0.00,Wunderground v.1.15,2013-08-01 03:57:00,
2013-07-31 23:01:00,72.0,70.8,29.96,SE,131,0.0,0.0,96,0.00,,,0.00,Wunderground v.1.15,2013-08-01 04:01:00,
2013-07-31 23:02:00,72.0,70.8,29.96,SE,131,0.0,0.0,96,0.00,,,0.00,Wunderground v.1.15,2013-08-01 04:02:00,
2013-07-31 23:07:00,72.0,70.8,29.96,SE,131,0.0,0.0,96,0.00,,,0.00,Wunderground v.1.15,2013-08-01 04:07:00,
2013-07-31 23:12:00,71.8,70.6,29.96,SE,131,1.0,1.0,96,0.00,,,0.00,Wunderground v.1.15,2013-08-01 04:12:00,
2013-07-31 23:17:00,71.7,70.5,29.97,NNW,345,0.0,2.0,96,0.00,,,0.00,Wunderground v.1.15,2013-08-01 04:17:00,
2013-07-31 23:22:00,71.8,70.9,29.97,NNE,29,0.0,0.0,97,0.00,,,0.00,Wunderground v.1.15,2013-08-01 04:22:00,
2013-07-31 23:27:00,72.6,71.7,29.97,ENE,68,0.0,1.0,97,0.00,,,0.00,Wunderground v.1.15,2013-08-01 04:27:00,
2013-07-31 23:32:00,72.9,72.0,29.97,NNE,15,0.0,0.0,97,0.00,,,0.00,Wunderground v.1.15,2013-08-01 04:32:00,
2013-07-31 23:37:00,73.1,72.2,29.98,NE,43,0.0,2.0,97,0.00,,,0.00,Wunderground v.1.15,2013-08-01 04:37:00,
2013-07-31 23:42:00,73.4,72.2,29.98,NE,43,1.0,2.0,96,0.00,,,0.00,Wunderground v.1.15,2013-08-01 04:42:00,
2013-07-31 23:47:00,73.5,72.3,29.98,NE,50,1.0,2.0,96,0.00,,,0.00,Wunderground v.1.15,2013-08-01 04:47:00,
2013-07-31 23:52:00,73.8,72.6,29.98,NNW,338,0.0,1.0,96,0.00,,,0.00,Wunderground v.1.15,2013-08-01 04:52:00,
2013-07-31 23:57:00,74.0,72.5,29.98,NE,41,0.0,2.0,95,0.00,,,0.00,Wunderground v.1.15,2013-08-01 04:57:00,